Showing default

CENTISPACE-1 S1, 43636

Orbit data source: Space-Track

CENTISPACE-1 S1, 43636 is a payload satellite owned by Centispace (CN) in SSO that was launched on Sat, 29 Sep 2018 UTC via a KUAIZHOU-1A launch vehicle from the Jiuquan Satellite Launch Center, China (JSC). Payload-class satellites include a variety of spacecraft equipped with specific instruments for various scientific and technological missions. These include communications satellites like Starlink; space stations such as the ISS; scientific satellites like the Hubble; Earth observation satellites from companies like Planet Labs, Umbra, and HawkEye 360; GPS; miniature CubeSats for education and research; and military/defense satellites.

Loading next visibility...
Identifier
43636, 2018-075A
Orbit
SSO
Country
Flag of CNCN / PRC
Related business
Manufacturer
IMI/CAS
Mission
Operational Commercial Nav/Com
Bus & Motor
WN100, Unknown motor
Mass
97 kg wet, 97 kg dry
Launch date (UTC)
2018-09-29 (8 years ago)
Launch vehicle
KUAIZHOU-1A
Launch site
Jiuquan Satellite Launch Center, China (JSC)
Object type
Payload
Rocket body
Debris
Shape & HBR
Box + 2 Pan, 1.0 m
Radar Cross Section
0.833 m², Medium (>0.1 m² and < 1m²)

Expand to show TLE details & history
Last TLE update: 2 days ago

TLE from 2 days ago
0 CENTISPACE-1 S1
1 43636U 18075A   26171.39848341  .00000355  00000-0  82969-4 0  9991
2 43636  97.8724 195.0058 0010002 108.1747 252.0544 14.59996148411026
Epoch: 2026-06-20T09:33Z
TLE epoch observation values (Epoch: 2026-06-20T09:33:48.966Z)
Latitude
-0.00001°
Longitude
142.9381°
Altitude
698.368 km
Speed
7.506 km/s
True Right ascension
13h 00m 01s
True Declination
0° 00' 00"
Sunlit
Object was in daylight at epoch
Visualization orbit readout
Latitude
Unknown
Longitude
Unknown
Altitude
Unknown
Speed
Unknown
Apparent Right ascension
Unknown
Apparent Declination
Unknown
Sunlit
N/A
Visualization observer readout
Local Sidereal Time
21:28:17
Azimuth
Unknown
Elevation
Unknown
Doppler factor
Unknown
Orbital elements
Apogee altitude
697.323 km
Perigee altitude
683.183 km
Semi-major axis
7,068.39 km
Eccentricity
0.001
Inclination
97.8724°
RAAN
195.0058°
Arg. of periapsis
108.1747°
True anomaly
251.9454°
Mean anomaly
252.0544°
Eccentric anomaly
251.9999°
Mean motion
3.65227 °/min
Orbital period
98.57 mins
BSTAR
0.000082969
Loading maneuver chart data...
Computing Atmospheric mass density...
Loading historical data...
Loading historical data...
Loading historical data...
Loading historical data...
Loading historical data...
Loading historical data...
Loading historical data...
Other satellites on launch #75 in the year 2018 (2018-09-29 UTC)

Documentation

Showing up to 5 results
|